Погода в Верхней Саве

Россия / Пермский край     56°27′19″N   55°06′06″E
В апреле 2022 года жителям России запретили посещать сайт meteo.paraplan.net по решению Генеральной прокуратуры. Аудитория сайта уменьшилась в 10 раз. Владельцы сайта не видят смысла в поддержке погодного сервера в таких условиях. Сайт будет закрыт в октябре.
темп.,
°C
ветер,
м/с
пор.,
м/с
влажн.,
%
обл.,
%
осадки,
мм/ч
давл.,
гПа
погр.,
м
30 сентября, пт
пт3023:00+4вюв51189100 0.9 1022440
02:00+3вюв61086100 0.4 1023379
05:00+2вюв5986100 0.4 1024313
08:00+3вюв4885100 0.0 1026312
11:00+4вюв578099 0.0 1027438
14:00+8юв576442 0.0 1028836
17:00+8юв676525 0.0 1028813
20:00+4ююв36835 0.0 1030138
1 октября, сб
сб123:00+3юв378923 0.0 1030149
02:00+3юв488597 0.0 1030237
05:00+4юв4978100 0.0 1029372
08:00+5юв4978100 0.0 1029387
11:00+7ююв576999 0.0 1029486
14:00+9ююв576050 0.0 1028729
17:00+11ююв575920 0.0 1027889
20:00+7юв4107471 0.0 1026223
2 октября, вс
вс223:00+6ююв51075100 0.0 1025263
02:00+4ююв4108299 0.0 1025248
05:00+4юв4108385 0.0 1024241
08:00+4ююв5117791 0.0 1023273
11:00+9ю61057100 0.0 1022453
14:00+14ю7104794 0.0 1020755
17:00+15ю71247100 0.0 1019829
20:00+11ю7155365 0.0 1019500
3 октября, пн
пн323:00+11ю7155376 0.0 1018479
02:00+10ю61461100 0.5 1018469
05:00+10ю6136895 1.5 1018389
08:00+10ю51161100 0.1 1019339
11:00+12ю6115670 0.1 1020430
14:00+15ююз61057100 0.1 1020693
17:00+11ю51274100 0.2 1021464
20:00+12ююв5125895 0.0 1022357
4 октября, вт
вт423:00+11ю4125865 0.0 1024270
02:00+9ю3106450 0.0 1025195
05:00+8ююв3106382 0.0 1026167
08:00+8ююв3105967 0.0 1028183
11:00+13ю5104116 0.0 1029408
14:00+17ю69344 0.0 1029864
17:00+16ю59405 0.0 1029925
20:00+11ююв312535 0.0 1030223